map of LEE home
LEE - Airport
Location
City:  Leesburg, Florida, United States
Name:Leesburg International Airport
ICAO:KLEE
IATA:LEE
FAA LID:LEE

Details
Type:Airport (Airfield)
Use:Public/Civil
Latitude:2849'22"N (28.822889)
Longitude:8148'30"W (-81.808416)
Datum:WGS 1984
Elevation:75 ft (23 m)
Variation:6.11W (WMM2015 magnetic declination)
-0.09 annual change
Runways:2
Longest:6300 × 100 ft (1920 × 30.5 m), paved

Time
Time Zone:UTC-5 (DST-4)
Local Time:

Weather
METAR:KLEE 180353Z AUTO 21004KT 10SM CLR 27/26 A3007 RMK AO2 SLP183 T02670256
TAF:KLEE 172342Z 1800/1824 VRB03KT P6SM FEW040 FEW100 BKN250
FM181600 21004KT P6SM VCSH SCT030
FM181800 22006KT P6SM VCTS SCT045CB

Related Locations
Nearby:
Farthest:USL: 11495 mi / 18499 km
Useless Loop, WA, AU

Find:

   beyond  
but within

Other Information
Maps:
NOTAMs:
Links:
Sources:

  
flag of United States
flag of Florida
  

Airport Diagram

Airport diagram for LEE

Airport diagram PDF

Sectional Chart

Flight Planning
at skyvector.com

Satellite Image

Google Maps Satellite view

 

Copyright © 2004-2017 Karl L. Swartz. All rights reserved.
The Great Circle Mapper name and logo are trademarks of the Great Circle Mapper.
All other trademarks mentioned herein belong to their respective owners.
Please see credits for attibutions and further copyright information.

  Follow gcmap on Facebook Follow gcmap on Twitter Follow gcmap on Google+ GCmap on LinkedIn

hCard Microformat

Geo Microformat